Wetbulb
64.12 64.34 64.12 64.56 65.17 64.26 64.32 63.85 62.11 61.96 60.26 59.41 59.82 60.09 59.97 59.68 59.96 59.76 60.20 61.10 61.81 61.06 61.71 62.92 63.24 63.84 63.56 64.05 64.12 63.91 62.50 61.39 58.57 60.67 62.24 60.63 57.65 56.08 54.33 52.13 53.60 50.97 50.85
62.41 63.33 63.00 63.51 63.74 62.86 63.31 62.76 62.29 61.24 60.69 60.23 60.27 59.78 59.83 59.66 58.43 58.62 59.20 60.28 58.64 58.60 59.57 61.21 62.06 65.01 62.78 62.92 62.78 62.89 63.01 61.00 60.00 57.85 61.47 58.62 56.91 56.23 53.68 51.10 50.85 51.54 50.38
57.20 58.79 60.64 61.76 62.50 62.62 62.53 62.68 62.43 62.11 61.15 60.64 60.12 59.24 59.19 58.30 57.01 57.29 57.62 57.32 57.27 57.07 57.42 58.56 59.67 61.58 61.27 61.84 61.91 62.35 62.06 62.23 60.52 59.18 61.55 61.05 58.13 56.69 52.39 50.99 50.54 49.52 51.27
56.13 56.10 55.42 57.73 61.38 62.26 62.76 62.72 62.74 62.21 61.05 60.27 59.72 59.89 59.28 58.49 58.12 57.43 57.00 55.77 55.67 56.49 56.91 57.35 58.24 60.12 60.39 61.41 61.94 62.38 62.63 60.91 59.48 59.22 59.78 59.56 57.18 55.01 53.30 49.65 48.99 49.04 49.26
54.70 54.76 54.46 55.34 57.36 61.87 62.76 62.49 62.40 61.66 60.98 60.39 59.85 59.69 58.90 58.54 59.33 57.12 57.24 56.37 55.69 55.38 55.82 58.20 58.71 59.46 60.22 60.14 61.98 61.74 61.89 60.20 58.27 59.64 59.78 58.79 56.59 53.70 51.58 51.81 50.83 49.03 48.97
53.90 54.02 54.66 55.16 56.12 56.55 59.09 61.55 62.55 62.14 62.03 60.27 60.18 59.17 58.50 60.37 55.13 53.13 55.76 56.11 56.30 56.19 55.03 55.20 55.52 57.45 57.47 56.95 57.19 56.65 61.11 59.78 58.27 58.58 60.02 58.35 56.97 55.19 55.55 54.17 52.51 47.28 45.87
54.03 53.90 54.26 54.32 54.82 55.69 56.27 57.65 60.07 59.61 59.12 60.08 59.11 58.98 58.35 58.27 53.47 50.97 51.14 53.12 54.96 54.94 54.63 54.83 55.59 58.05 55.63 56.44 56.88 55.98 54.87 54.95 58.30 60.45 59.40 59.20 57.65 57.41 56.96 55.15 52.62 50.49 50.42
53.03 52.66 54.00 53.52 53.50 53.72 54.88 54.16 56.34 56.49 57.37 59.16 59.06 59.35 58.17 58.82 52.87 51.29 51.62 53.05 53.47 54.82 55.20 55.43 55.19 55.34 55.46 56.36 57.00 58.39 59.74 59.24 57.73 61.24 60.93 60.71 60.40 59.68 58.62 57.29 56.06 54.40 53.56
51.72 52.12 52.60 52.86 52.08 52.14 51.88 52.02 52.47 53.92 54.41 55.19 56.91 57.43 57.61 58.43 51.78 50.42 51.26 53.83 54.42 54.15 56.04 56.22 55.99 55.23 52.41 49.82 54.90 56.12 58.15 59.24 55.44 54.67 54.12 53.85 52.17 52.78 56.96 58.27 56.08 54.76 50.66
51.17 51.71 51.74 51.60 51.12 50.12 50.33 51.03 51.55 52.53 53.74 55.35 55.37 55.46 54.92 57.48 51.21 49.49 50.46 56.32 55.62 54.45 54.39 55.01 51.79 54.12 49.90 48.44 53.28 55.67 57.08 57.20 57.37 56.50 55.58 52.81 53.18 54.35 53.87 59.06 57.84 55.20 52.15
51.11 50.47 50.35 49.07 48.23 48.18 47.99 47.80 48.07 49.37 50.05 50.49 52.24 52.40 53.99 54.29 54.95 48.70 47.80 55.16 56.19 54.91 53.81 52.81 53.91 48.97 46.88 45.95 45.97 55.33 57.05 58.26 55.98 57.27 56.28 56.06 58.11 58.49 59.71 60.38 59.48 56.66 53.28
47.82 47.73 47.45 47.02 48.08 48.65 45.94 45.93 46.24 46.57 47.15 47.68 48.61 49.94 52.82 53.34 50.32 49.21 46.32 46.29 52.11 55.92 55.57 53.54 52.09 47.40 46.46 44.20 44.48 45.89 46.82 51.33 58.25 58.78 57.91 57.01 57.57 58.39 59.68 60.07 58.32 56.36 56.00
45.43 45.01 45.43 46.23 46.45 46.50 45.52 45.90 46.12 45.94 45.89 45.72 46.40 47.27 49.14 52.42 53.36 48.18 46.98 44.88 45.44 50.58 55.09 52.63 48.62 46.64 45.78 45.30 44.10 44.08 44.08 56.73 58.69 58.78 57.65 57.71 58.54 59.24 59.52 58.55 55.99 55.53 53.46
42.60 43.16 44.11 44.64 45.22 46.01 46.98 45.72 44.83 44.76 44.77 45.37 45.30 45.43 46.51 49.09 51.11 51.71 51.64 50.53 47.25 49.77 50.57 51.58 49.73 48.62 47.21 49.86 48.94 48.57 53.83 58.83 58.69 58.47 57.69 58.55 58.05 56.06 56.10 55.43 53.70 51.60 50.46
41.78 42.47 43.04 43.79 43.92 44.04 44.53 44.02 44.06 45.43 45.58 45.84 46.29 46.56 45.30 45.63 48.51 48.20 49.00 52.46 53.36 51.29 50.60 50.05 49.76 48.74 49.61 51.64 52.66 52.66 55.84 57.35 57.49 58.09 57.27 55.60 54.64 53.81 52.47 53.56 51.84 50.09 47.94
40.94 41.51 42.05 42.27 42.56 42.59 42.39 42.41 41.90 41.20 41.26 40.66 40.30 41.47 45.13 43.55 42.48 41.96 42.66 42.76 43.13 41.92 48.53 49.16 49.41 50.71 50.70 51.45 52.08 52.45 54.89 54.96 57.13 57.07 55.74 54.87 53.27 52.39 50.79 51.57 50.64 49.12 47.77
40.65 41.11 41.22 41.24 41.42 41.08 41.14 40.83 39.89 41.53 40.61 40.27 39.79 40.02 40.17 40.89 40.96 40.50 39.99 40.14 40.11 43.55 49.63 49.65 52.53 53.16 52.64 52.05 52.94 52.57 53.12 55.17 56.58 55.89 55.05 54.40 52.76 51.24 49.25 49.18 48.41 47.53 47.04
41.37 41.00 41.31 41.27 41.53 41.57 41.55 41.07 41.03 40.21 39.87 41.00 40.80 39.92 39.84 38.99 39.09 38.70 39.06 39.50 43.01 42.99 45.98 48.53 50.91 52.38 53.12 52.71 52.53 52.83 54.23 54.99 54.87 54.76 54.52 53.89 51.94 49.86 49.86 48.70 47.38 46.65 46.48
39.65 39.47 40.22 40.74 41.36 41.61 41.96 41.92 41.69 41.42 41.04 41.18 42.34 41.87 40.67 38.99 38.99 38.54 38.40 41.27 42.13 43.34 45.97 47.18 48.89 51.38 52.71 53.37 53.41 53.64 54.14 54.05 53.88 53.57 53.34 52.25 51.12 50.65 49.59 48.31 46.84 42.14 42.68
37.30 37.44 37.73 38.58 39.37 40.40 41.00 41.06 41.21 41.72 41.62 41.64 42.01 42.49 44.09 41.65 42.70 41.71 41.10 41.53 42.83 44.55 46.38 46.98 48.34 50.92 52.44 53.14 53.40 54.17 54.03 52.47 52.91 52.59 51.75 51.00 50.11 50.13 48.35 46.87 46.56 44.72 44.87
35.78 36.83 35.73 37.30 38.41 38.77 39.45 39.55 40.38 41.22 42.04 42.42 42.94 43.53 39.91 44.45 44.69 45.78 44.98 43.68 43.60 44.97 46.34 47.12 48.34 50.38 52.06 53.20 53.48 53.80 53.46 53.28 53.07 52.08 50.72 50.17 49.55 48.64 48.34 47.40 46.94 45.69 44.95
36.28 37.11 38.08 38.55 39.53 39.55 39.65 40.51 40.83 41.07 42.08 43.20 43.52 44.20 37.30 43.05 45.42 46.54 47.84 48.07 47.51 47.31 47.80 48.07 48.84 50.03 51.98 52.79 53.54 53.74 53.43 52.91 52.82 51.48 50.19 49.66 48.51 48.07 47.45 46.79 46.54 45.33 44.48
36.68 37.19 37.76 38.53 39.65 39.56 41.51 41.49 42.07 42.22 42.57 43.15 45.39 45.28 45.64 45.11 45.85 46.78 48.32 49.61 49.67 48.80 48.67 49.35 49.05 50.16 52.61 53.56 54.50 54.50 53.69 53.10 52.02 51.24 49.65 48.59 47.98 47.53 47.05 46.38 45.96 44.86 44.11
38.47 39.25 39.42 39.61 40.56 41.43 42.57 43.45 43.56 41.28 44.18 44.92 45.24 46.35 47.13 47.83 47.45 48.38 49.63 50.66 50.66 50.19 50.60 50.82 50.59 51.37 53.10 53.97 54.58 54.75 54.49 53.65 52.67 51.20 50.18 48.36 47.49 45.15 46.89 46.26 45.62 45.27 44.62
39.06 40.30 43.70 44.95 43.30 44.01 44.49 45.40 45.90 46.35 46.87 46.14 47.05 48.53 49.48 49.02 47.81 48.59 49.88 49.92 50.40 50.38 50.15 51.07 51.68 53.33 53.38 53.88 53.96 54.12 48.75 40.66 50.84 47.34 50.45 48.93 47.78 47.44 47.11 46.09 45.59 45.08 44.50
36.47 38.46 40.45 44.94 48.19 48.66 48.10 48.26 48.28 48.26 48.12 48.30 48.10 48.46 48.61 48.79 48.39 48.28 48.66 49.43 50.19 51.42 51.61 51.40 52.24 53.33 53.60 53.52 53.78 47.63 38.89 39.71 43.01 42.51 49.73 49.12 48.27 47.73 47.23 46.26 45.86 45.25 44.34
MSLP
1006.34 1006.63 1006.97 1007.32 1007.69 1008.17 1008.49 1008.76 1009.01 1009.24 1009.66 1010.03 1010.45 1010.95 1011.34 1011.60 1012.04 1012.44 1012.72 1012.93 1013.13 1013.11 1013.06 1013.20 1013.30 1013.30 1013.46 1013.43 1013.44 1013.49 1013.83 1014.22 1014.91 1015.33 1015.49 1016.24 1017.13 1017.61 1018.69 1019.30 1019.64 1020.32 1020.85
1006.08 1006.41 1006.57 1006.72 1007.12 1007.82 1008.33 1008.62 1009.04 1009.40 1009.72 1010.02 1010.31 1010.65 1011.00 1011.39 1011.83 1012.24 1012.45 1012.52 1012.85 1013.07 1012.91 1012.98 1013.04 1012.88 1013.02 1013.05 1013.25 1013.29 1013.37 1013.71 1014.28 1015.04 1015.46 1016.22 1016.85 1017.31 1018.52 1019.33 1019.90 1020.24 1020.81
1005.84 1006.64 1006.96 1006.88 1006.81 1007.13 1007.54 1007.87 1008.42 1009.03 1009.53 1009.90 1010.27 1010.64 1011.02 1011.28 1011.59 1011.82 1011.95 1012.11 1012.36 1012.57 1012.65 1012.71 1012.68 1012.62 1012.74 1012.78 1012.86 1013.05 1013.09 1013.22 1013.68 1014.34 1014.89 1015.42 1016.41 1017.25 1018.61 1019.64 1019.62 1020.29 1020.68
1005.99 1006.60 1007.21 1007.46 1007.18 1006.62 1006.62 1007.15 1007.61 1008.09 1008.80 1009.36 1009.81 1010.30 1010.68 1010.92 1011.20 1011.47 1011.63 1011.80 1011.98 1012.10 1012.16 1012.15 1012.19 1012.26 1012.36 1012.39 1012.39 1012.49 1012.72 1012.92 1013.33 1013.70 1014.26 1014.98 1015.92 1017.25 1018.05 1018.69 1019.53 1020.44 1020.63
1006.69 1006.37 1007.15 1007.13 1007.18 1006.90 1006.78 1006.74 1007.14 1007.66 1008.18 1008.66 1009.22 1009.74 1010.11 1010.51 1010.85 1011.12 1011.29 1011.42 1011.63 1011.80 1011.81 1011.79 1011.72 1011.68 1011.78 1011.86 1012.00 1012.00 1012.21 1012.42 1013.09 1013.42 1013.94 1014.67 1015.72 1016.82 1017.22 1018.02 1018.60 1019.81 1020.75
1007.69 1007.32 1007.09 1006.98 1007.49 1007.22 1007.21 1007.31 1007.04 1007.35 1007.90 1007.97 1008.74 1008.98 1009.59 1009.88 1010.18 1010.44 1010.67 1010.97 1011.04 1011.30 1011.59 1011.42 1011.36 1011.35 1011.31 1011.36 1011.32 1011.18 1011.42 1011.66 1012.40 1012.88 1013.35 1013.70 1014.32 1015.08 1016.08 1016.92 1017.86 1019.43 1020.33
1007.51 1007.54 1007.16 1007.09 1007.78 1007.10 1006.94 1007.32 1007.64 1007.51 1008.66 1008.49 1008.75 1008.71 1009.06 1009.17 1009.47 1009.84 1010.09 1010.46 1010.63 1010.78 1010.95 1011.05 1011.16 1011.05 1011.11 1011.14 1010.98 1010.91 1010.68 1010.85 1010.73 1011.50 1012.23 1012.70 1013.47 1013.74 1014.61 1015.96 1016.82 1017.53 1018.14
1007.19 1007.32 1007.54 1007.19 1007.50 1006.64 1006.89 1007.23 1007.38 1007.48 1007.76 1007.82 1008.06 1008.76 1008.62 1008.60 1008.79 1009.06 1009.28 1009.69 1009.93 1009.96 1010.11 1010.28 1010.58 1010.64 1010.69 1010.79 1010.79 1010.80 1010.57 1010.38 1010.56 1010.79 1010.94 1011.40 1011.88 1012.96 1013.17 1013.69 1015.01 1016.66 1017.56
1006.42 1007.20 1007.02 1007.26 1006.52 1006.19 1006.91 1007.21 1007.00 1007.10 1007.42 1007.40 1007.30 1007.43 1007.57 1007.52 1007.75 1008.10 1008.54 1009.08 1009.29 1009.41 1009.38 1009.46 1009.77 1010.08 1010.07 1010.14 1010.52 1010.39 1010.24 1010.08 1009.98 1009.98 1010.25 1010.42 1011.09 1011.92 1012.75 1014.06 1015.36 1016.28 1017.35
1006.80 1006.48 1006.39 1006.14 1006.17 1006.32 1006.84 1007.08 1007.22 1007.10 1007.04 1006.77 1006.56 1006.55 1006.58 1006.70 1006.74 1007.06 1007.56 1008.12 1008.48 1008.67 1008.74 1008.75 1008.90 1009.23 1009.42 1009.51 1009.93 1009.89 1009.82 1009.76 1010.01 1010.22 1010.46 1010.82 1011.01 1011.66 1012.24 1012.68 1013.89 1015.16 1016.32
1006.73 1006.53 1005.96 1006.03 1006.08 1006.79 1007.12 1007.02 1006.95 1007.15 1007.16 1006.96 1006.88 1006.66 1006.40 1006.32 1006.31 1006.20 1006.51 1007.10 1007.43 1007.74 1008.03 1008.19 1008.21 1008.36 1008.61 1008.68 1008.88 1009.20 1008.82 1008.88 1009.28 1009.47 1010.05 1010.75 1011.12 1011.67 1012.21 1012.57 1013.05 1013.96 1014.74
1006.67 1006.49 1006.06 1006.13 1006.37 1006.60 1006.76 1006.94 1006.48 1007.04 1006.83 1006.61 1006.59 1006.28 1006.00 1005.69 1005.61 1005.67 1005.66 1006.10 1006.29 1006.80 1006.84 1007.08 1007.26 1007.46 1007.78 1007.95 1008.27 1008.22 1008.20 1008.09 1008.62 1009.21 1009.70 1010.37 1010.75 1011.19 1011.62 1012.13 1012.64 1013.49 1013.93
1006.90 1006.67 1006.45 1006.41 1006.43 1006.49 1006.40 1006.24 1006.35 1006.18 1006.06 1006.04 1006.01 1005.59 1005.27 1005.16 1004.87 1004.85 1004.98 1005.22 1005.46 1005.78 1005.80 1005.94 1006.16 1006.45 1006.80 1007.05 1007.34 1007.61 1007.92 1008.02 1007.96 1008.46 1008.94 1009.48 1009.76 1010.22 1011.14 1011.80 1012.58 1013.13 1014.20
1006.48 1006.20 1005.86 1005.58 1005.49 1005.33 1005.10 1005.34 1005.52 1005.51 1005.17 1005.13 1005.14 1004.88 1004.70 1004.40 1004.20 1004.22 1004.29 1004.40 1004.42 1004.54 1004.76 1005.08 1005.39 1005.69 1005.99 1006.38 1007.01 1007.27 1007.46 1007.17 1007.20 1007.58 1008.08 1008.55 1009.42 1010.08 1010.67 1011.16 1012.38 1013.31 1014.37
1005.35 1004.93 1004.70 1004.44 1004.40 1004.24 1004.18 1004.32 1004.41 1004.13 1004.01 1003.96 1003.80 1003.86 1003.87 1003.58 1003.50 1003.63 1003.66 1003.66 1003.38 1003.41 1003.72 1004.24 1004.67 1005.17 1005.68 1006.04 1006.26 1006.66 1006.78 1006.80 1006.81 1007.13 1007.71 1008.23 1009.04 1009.77 1010.51 1010.84 1011.78 1012.73 1014.08
1004.53 1004.07 1003.77 1003.66 1003.55 1003.52 1003.49 1003.26 1003.17 1003.03 1003.11 1003.11 1003.20 1003.44 1003.11 1002.80 1002.88 1003.12 1003.38 1003.45 1003.63 1003.69 1003.00 1003.20 1003.40 1003.89 1004.28 1004.62 1005.15 1005.78 1006.12 1006.24 1006.34 1006.73 1007.34 1007.78 1008.47 1009.20 1010.11 1010.86 1011.50 1012.54 1013.83
1003.73 1003.33 1003.10 1003.02 1002.78 1002.56 1002.43 1002.36 1002.00 1001.81 1001.86 1001.89 1002.05 1002.08 1002.14 1002.23 1002.39 1002.54 1002.69 1002.94 1003.35 1003.24 1002.54 1002.64 1002.73 1003.18 1003.44 1003.65 1003.99 1004.75 1005.06 1005.15 1005.57 1006.11 1006.80 1007.29 1008.09 1008.89 1009.78 1010.49 1011.44 1012.40 1013.77
1002.56 1002.21 1001.95 1001.63 1001.45 1001.24 1001.07 1000.92 1000.84 1000.69 1000.58 1000.52 1000.47 1000.64 1000.50 1000.68 1000.94 1001.27 1001.78 1002.49 1002.74 1002.82 1002.70 1002.61 1002.26 1002.48 1002.62 1002.98 1003.41 1003.82 1004.13 1004.48 1004.83 1005.58 1006.30 1006.83 1007.62 1008.47 1009.38 1010.24 1011.08 1011.91 1013.13
1001.42 1001.10 1000.82 1000.48 1000.14 999.94 999.82 999.63 999.50 999.43 999.34 999.24 999.26 999.09 998.93 999.18 999.42 999.78 1000.21 1000.77 1000.88 1001.15 1001.49 1001.68 1001.58 1001.74 1002.01 1002.36 1002.68 1002.98 1003.35 1003.68 1004.25 1005.07 1005.72 1006.33 1007.17 1008.02 1008.88 1009.79 1010.60 1011.60 1012.80
1000.27 1000.00 999.84 999.46 999.04 998.76 998.50 998.32 998.08 997.86 997.80 997.72 997.57 997.18 997.61 998.16 998.30 998.43 998.72 998.95 999.08 999.04 999.51 1000.15 1000.46 1000.76 1001.06 1001.66 1001.96 1002.20 1002.59 1003.19 1003.69 1004.43 1005.19 1005.83 1006.68 1007.44 1008.34 1009.32 1010.34 1011.41 1012.30
999.18 998.60 998.29 998.08 997.66 997.34 997.11 996.84 996.66 996.55 996.25 996.12 995.87 996.00 996.33 996.57 996.46 996.44 996.64 997.02 997.38 997.52 997.88 998.63 999.23 999.61 1000.11 1000.70 1001.02 1001.36 1001.69 1002.28 1002.93 1003.75 1004.57 1005.48 1006.29 1007.12 1008.04 1008.98 1010.16 1011.29 1012.00
997.79 997.14 996.71 996.31 995.95 995.65 995.40 995.38 995.16 995.14 995.02 994.71 994.57 994.73 994.88 995.20 995.08 994.94 994.91 995.11 995.55 996.09 996.46 996.96 997.64 998.18 998.84 999.50 999.94 1000.53 1000.97 1001.55 1002.22 1003.11 1004.12 1004.93 1005.90 1006.90 1007.74 1008.71 1009.91 1010.96 1011.64
996.39 995.66 995.12 994.73 994.39 994.02 993.96 993.70 993.68 993.68 993.50 993.46 993.31 993.25 993.36 993.43 993.45 993.50 993.57 993.75 994.11 994.70 995.30 995.81 996.50 997.09 997.59 998.24 998.91 999.42 1000.12 1000.78 1001.52 1002.42 1003.50 1004.56 1005.68 1006.66 1007.44 1008.40 1009.44 1010.33 1011.08
994.86 994.06 993.41 992.88 992.63 992.49 992.33 992.13 992.16 992.19 992.05 992.02 991.90 991.78 991.69 991.60 991.80 991.91 992.14 992.40 992.86 993.36 993.96 994.54 995.26 995.81 996.38 997.12 997.91 998.64 999.44 1000.28 1001.16 1002.00 1002.86 1003.92 1005.20 1006.31 1007.10 1007.92 1009.02 1009.70 1010.44
994.31 993.12 991.77 990.70 990.94 990.98 991.02 991.02 990.93 990.92 990.74 990.58 990.48 990.31 990.04 990.03 990.36 990.48 990.96 991.35 991.82 992.34 992.92 993.48 994.03 994.56 995.33 996.13 996.92 997.83 998.71 999.64 1000.72 1001.52 1002.66 1003.70 1004.57 1005.80 1006.32 1007.45 1008.70 1009.30 1010.27
994.56 993.35 992.10 991.00 990.50 990.31 990.09 990.09 990.02 989.88 989.69 989.43 989.49 989.36 989.44 989.56 989.64 990.06 990.37 990.77 991.16 991.49 991.88 992.63 993.32 993.83 994.69 995.56 996.24 997.34 998.51 999.44 1000.68 1001.29 1002.20 1003.42 1004.28 1005.36 1006.07 1007.28 1008.31 1008.92 1010.00
Wind_Speed
8 8 8 7 7 5 4 4 6 5 7 8 8 8 7 5 4 4 4 5 5 5 5 6 6 5 4 4 3 3 3 4 4 1 2 8 7 12 10 8 12 8 8
7 9 10 9 9 8 7 6 4 4 4 6 6 6 5 6 5 6 6 4 4 5 7 5 7 4 6 5 4 6 5 4 4 5 3 4 4 13 11 12 9 7 7
6 4 4 6 8 10 10 10 9 8 7 6 5 5 6 6 6 6 7 6 6 6 6 6 6 5 6 4 5 5 4 3 4 4 4 4 3 9 10 8 8 7 6
8 9 8 6 7 8 11 10 11 10 9 8 7 7 7 6 6 7 6 7 6 6 6 6 5 5 6 7 6 6 5 4 3 4 4 6 9 8 9 11 9 6 7
6 8 5 6 7 4 5 8 8 8 8 8 8 7 7 7 6 7 7 7 7 7 7 7 5 5 6 7 4 6 6 4 3 5 6 6 7 10 13 8 8 8 5
5 4 3 5 4 4 3 5 5 7 7 8 7 8 8 5 10 12 9 7 8 7 7 7 6 7 8 9 12 10 9 6 5 5 7 11 13 11 11 11 10 9 5
3 4 4 3 3 1 2 2 4 3 5 4 5 6 8 8 12 11 12 6 7 7 8 6 6 5 7 7 8 9 6 9 9 10 12 12 11 16 13 13 13 10 6
3 5 6 4 6 3 3 5 6 3 7 7 10 16 8 8 13 15 16 8 7 8 8 8 8 8 7 7 8 8 7 6 7 8 13 13 13 14 17 14 14 8 5
4 6 6 7 6 4 5 6 5 5 6 7 7 11 12 13 15 17 13 7 9 9 9 8 8 7 10 11 7 10 10 6 6 11 8 12 15 16 13 10 9 10 4
7 8 7 4 3 3 2 4 4 5 6 5 6 6 10 12 13 16 13 8 10 7 7 8 13 10 12 14 9 9 10 6 6 5 3 4 11 15 20 15 12 11 5
6 6 6 5 4 4 4 2 3 5 5 6 6 6 7 7 8 15 16 9 9 7 7 5 6 13 14 15 12 9 13 7 7 7 6 5 8 12 11 9 11 9 11
6 6 6 5 5 5 6 6 5 7 10 10 10 10 8 9 10 12 14 15 11 10 9 6 6 13 14 11 5 12 16 9 7 7 8 8 8 10 10 10 7 8 9
6 6 6 6 6 6 6 7 7 7 8 9 10 11 11 10 9 14 15 15 17 9 8 10 13 15 14 8 7 10 5 8 8 8 9 9 11 10 10 8 6 7 7
10 11 10 11 11 11 9 9 10 11 11 12 12 12 11 10 10 5 7 9 16 14 12 9 9 10 12 8 5 4 5 8 8 9 9 8 7 8 8 8 8 5 5
12 12 12 11 12 11 12 11 12 13 12 12 11 11 11 11 10 7 5 6 9 10 6 5 6 6 8 7 5 4 6 5 7 7 7 9 9 9 8 9 8 8 5
14 12 11 10 10 10 11 11 15 17 17 18 17 14 11 12 7 7 4 0 7 11 3 5 6 8 9 9 8 8 8 9 8 8 9 11 11 11 10 8 10 10 10
14 14 11 13 11 11 11 11 12 12 20 24 25 26 28 25 23 17 8 9 10 3 2 3 3 7 7 7 8 9 10 11 11 10 11 11 11 11 13 12 11 10 8
14 20 12 12 11 11 11 12 11 11 12 11 17 22 24 25 23 21 20 11 11 7 8 7 5 5 6 7 8 9 9 10 10 11 11 11 12 13 13 12 11 12 11
12 11 12 11 10 13 12 12 12 12 12 12 11 12 16 21 21 22 22 13 14 14 11 10 8 7 6 7 8 10 11 10 11 11 11 12 12 13 12 12 12 13 10
13 20 18 12 11 11 10 12 12 12 12 12 11 13 9 8 10 11 10 12 13 13 13 11 9 8 8 8 8 9 11 11 12 12 12 12 12 13 13 13 10 11 11
10 11 14 12 12 11 11 12 12 12 12 12 13 12 12 10 10 10 10 11 12 12 13 11 10 9 9 9 9 10 11 12 13 13 12 12 13 13 12 12 11 11 9
10 11 10 11 10 12 12 11 11 12 12 12 11 10 12 10 11 10 10 10 12 13 11 12 11 12 11 11 11 11 12 12 12 13 13 13 12 11 11 12 11 11 11
10 12 11 11 11 13 11 11 11 11 11 11 10 10 10 10 11 11 11 10 10 11 11 11 12 12 11 12 12 12 13 14 14 14 14 14 12 12 12 12 13 13 12
9 10 12 12 11 10 10 10 10 12 11 11 11 11 11 11 11 12 11 10 11 11 12 13 13 16 14 13 12 13 13 13 13 16 20 16 14 13 12 13 13 15 12
9 10 11 7 9 9 9 9 9 9 10 10 10 10 9 8 8 9 9 8 9 10 12 12 13 17 20 21 18 18 15 13 17 16 15 17 19 19 13 13 13 13 14
11 11 10 10 6 2 2 3 3 4 4 3 4 4 4 5 6 6 7 7 7 9 12 11 13 18 22 19 21 18 15 15 13 17 16 16 17 15 13 16 19 12 16
Wind_Direction
175 169 164 172 178 162 181 178 174 162 159 155 154 155 162 164 189 193 221 246 261 275 279 252 248 239 241 242 243 244 221 165 193 129 113 139 147 156 154 151 148 143 141
184 182 183 181 175 168 174 191 165 159 152 155 156 160 176 192 195 202 215 235 248 271 280 279 267 247 233 234 224 233 233 214 146 164 152 148 176 164 155 156 151 151 146
117 154 210 211 183 183 179 181 178 173 182 184 174 187 199 203 200 213 207 219 237 247 256 266 274 272 265 236 228 224 233 232 193 152 162 151 118 153 143 158 158 143 152
71 68 59 8 261 201 188 184 181 176 171 179 188 197 208 213 212 219 214 219 229 239 250 254 263 264 255 251 240 223 223 238 186 167 148 154 154 157 163 161 155 159 151
33 63 44 31 4 297 191 177 173 168 176 178 183 203 209 207 216 220 226 222 221 237 257 254 253 268 284 262 245 257 217 206 156 161 159 149 152 158 179 173 161 154 163
20 24 35 51 14 15 2 279 183 179 191 177 201 192 206 213 221 218 212 222 231 221 224 244 261 288 296 283 272 238 229 187 185 162 179 184 181 178 168 170 155 150 174
343 317 337 340 284 289 307 292 204 150 243 308 266 218 208 207 217 230 237 228 221 219 219 225 245 252 274 286 289 286 260 231 183 169 184 193 178 182 165 166 172 175 162
298 321 298 292 276 277 254 234 227 226 212 202 218 245 225 221 217 226 234 225 226 220 214 213 215 235 247 253 279 286 264 236 197 190 188 189 193 180 182 180 172 151 116
230 253 256 262 274 313 299 276 249 209 218 215 208 217 220 230 215 221 222 214 230 227 220 211 209 225 240 241 254 269 270 235 201 197 230 191 173 170 163 141 161 159 160
235 228 235 255 318 340 331 352 336 332 296 280 257 238 236 237 214 214 211 219 232 233 223 215 215 215 229 243 232 246 263 233 168 170 137 139 166 163 163 170 162 167 163
352 350 4 9 5 315 298 292 308 314 324 310 296 277 260 246 234 217 214 210 224 228 220 210 210 218 232 246 234 242 242 203 189 163 140 153 161 164 171 167 165 174 167
316 308 308 295 281 279 274 271 263 262 271 274 276 276 272 255 228 228 211 203 220 227 225 209 205 214 236 242 258 237 251 174 158 159 159 174 177 179 183 181 167 163 179
306 288 275 260 245 245 256 268 270 253 254 263 263 263 260 258 248 224 216 207 219 222 228 219 201 209 228 249 236 249 228 217 176 177 185 183 190 181 170 163 123 142 145
276 269 265 261 263 263 252 250 256 256 257 253 253 260 260 258 250 236 220 225 230 234 244 239 231 225 206 202 162 188 213 210 188 193 191 174 154 155 162 159 153 133 117
273 273 270 266 264 262 255 251 249 247 244 250 252 249 249 250 247 242 225 237 241 219 191 213 218 199 206 197 185 184 204 205 195 179 173 157 158 153 155 146 138 124 131
271 268 263 261 258 253 253 257 243 244 249 254 258 254 263 274 239 194 215 299 255 260 167 182 195 207 205 195 192 192 212 201 195 174 170 166 162 159 151 149 142 144 153
263 262 260 253 250 248 245 246 254 248 238 241 243 247 252 251 253 259 215 196 217 234 250 216 179 208 208 200 189 199 205 204 181 172 173 168 160 157 153 150 147 143 160
264 261 255 252 248 243 241 244 244 248 253 250 237 236 240 240 236 228 226 203 239 240 250 248 203 189 202 194 194 196 196 187 177 173 174 166 163 159 158 156 156 156 168
260 257 257 257 253 249 248 244 240 239 240 245 246 237 229 234 232 229 223 223 226 221 214 219 209 200 190 199 195 193 188 177 174 173 173 167 164 166 161 160 159 159 173
265 260 252 255 254 252 247 245 243 240 237 238 240 240 236 214 218 218 213 213 220 222 212 214 202 196 195 200 197 192 186 176 172 175 173 167 165 166 159 156 158 157 179
266 260 246 247 244 244 243 241 241 241 239 235 240 237 227 222 227 225 208 203 207 207 202 198 189 187 190 194 188 189 184 178 176 174 168 167 166 166 162 156 158 162 174
260 256 250 246 242 237 236 236 234 233 239 237 237 236 213 217 228 230 220 206 205 207 205 197 192 193 189 190 185 186 179 175 172 171 168 165 163 158 155 152 152 172 170
266 259 251 243 240 241 239 228 231 230 233 235 236 228 224 220 221 222 224 210 196 195 196 193 190 193 187 185 182 178 177 175 173 166 164 159 158 155 155 161 170 174 167
271 260 250 240 232 231 231 233 224 226 233 230 230 230 227 224 216 217 214 208 199 193 191 191 188 193 183 178 178 181 179 174 172 169 161 159 155 152 166 164 171 170 156
327 321 311 231 219 220 228 229 228 227 228 227 232 232 228 210 209 208 202 189 186 185 187 187 193 185 178 174 172 176 170 159 169 162 162 155 152 164 170 153 173 163 153
347 348 353 358 29 35 221 238 244 234 230 219 214 221 220 199 195 189 183 185 187 188 180 183 191 181 173 169 171 164 148 144 150 164 154 154 159 169 166 165 174 157 155